STARLINK-1143 (45179 NORAD) Tracking and Keplerian Element Data

This shows tracking and keplerian element data for the satellite.

Feedback or suggestion? Click here.




ElementValue
Catalog45179
NameSTARLINK-1143
Epoch Orbit176
Epoch Day189.91668981
Epoch Year2020
RAAN342.6924
Inclination52.996
Eccentricity0.0001398
Argument of Perigee95.3511
Mean Anonmoly327.0694
Mean Motion15.05562359
Decay Rate0.00032016
L11 45179U 20012B 20189.91668981 .00032016 00000-0 22076-2 0 9990
L22 45179 52.9960 342.6924 0001398 95.3511 327.0694 15.05562359 1760

Live tracking and technical data element details for STARLINK-1143 (NORAD 45179). STARLINK-1143 can be tracked NOW for your location showing map with azimuth and elevation plus other details from your city location.

Track the satellite on the map from your city or location and see movement details for azimuth, elevation, latitude, longitude, range, height, and movement on the map or in text.







IsCatalogInMostPopularTable: catalog: 45179, numindb: 26
Update: records affected: 1



GetName: 45179 STARLINK-1143

Hit Count: updated at: Thu, 09 Jul 2020 02:13:22 GMT